Weather History for Limon, CO

Change the Weather History Date:

Thursday, October 4, 2012

  Actual Average Record
Temperature  
Mean Temperature 40 °F -  
Max Temperature 52 °F - 82 °F (2005)
Min Temperature 28 °F - 24 °F (1999)
Degree Days  
Heating Degree Days 25    
Month to date heating degree days 55  
Cooling Degree Days 0    
Month to date cooling degree days 0  
Moisture  
Dew Point 24 °F    
Average Humidity 58    
Maximum Humidity 85    
Minimum Humidity 33    
Precipitation  
Precipitation 0.00 in - 0.37 in (2000)
Month to date precipitation 0.01  
Year to date precipitation 8.66  
Sea Level Pressure  
Sea Level Pressure 30.25 in    
Wind  
Wind Speed 13 mph (ENE)    
Max Wind Speed 26 mph    
Max Gust Speed 32 mph    
Visibility 10 miles    
Events      
T = Trace of Precipitation, MM = Missing Value Source: NWS Daily Summary

Daily Weather History Graph

Daily Weather History Graph

Search for Another Location

Airport:

Trip Planner

Search our weather history database for the weather conditions in past years. The results will help you decide how hot, cold, wet, or windy it might be!

Date:

Astronomy

Oct. 04, 2012 Rise Set
Actual Time 6:54 AM MDT 6:31 PM MDT
Civil Twilight 6:27 AM MDT 6:58 PM MDT
Nautical Twilight 5:56 AM MDT 7:29 PM MDT
Astronomical Twilight 5:25 AM MDT 8:00 PM MDT
Moon 9:10 PM MDT (10/4) 11:11 AM MDT (10/4)
Length of Visible Light 12h 31m
Length of Day
11h 37m
Waning Gibbous, 81% of the Moon is Illuminated
Oct 4
Waning Gibbous
Oct 8
Last Quarter
Oct 15
New
Oct 21
First Quarter
Oct 29
Full

Hourly Weather History & Observations

Time (MDT) Temp. Windchill Dew Point Humidity Pressure Visibility Wind Dir Wind Speed Gust Speed Precip Events Conditions
12:55 AM 35.1 °F 22.2 °F 27.0 °F 72% 30.16 in 10.0 mi NNW 27.6 mph 33.4 mph N/A   Clear
1:55 AM 33.1 °F 23.0 °F 25.0 °F 72% 30.20 in 10.0 mi NNW 15.0 mph 23.0 mph N/A   Clear
2:55 AM 32.0 °F 20.8 °F 26.1 °F 79% 30.19 in 10.0 mi NNW 17.3 mph - N/A   Clear
3:55 AM 30.9 °F 20.7 °F 26.1 °F 82% 30.22 in 10.0 mi NNW 13.8 mph - N/A   Clear
4:55 AM 30.0 °F 21.1 °F 25.0 °F 82% 30.21 in 10.0 mi NNW 10.4 mph - N/A   Clear
5:55 AM 28.9 °F 20.4 °F 25.0 °F 85% 30.23 in 10.0 mi NW 9.2 mph - N/A   Clear
6:55 AM 28.0 °F 20.8 °F 24.1 °F 85% 30.32 in 10.0 mi NW 6.9 mph - N/A   Clear
7:55 AM 33.1 °F 26.1 °F 26.1 °F 75% 30.33 in 10.0 mi NW 8.1 mph - N/A   Clear
8:55 AM 36.0 °F 28.5 °F 25.0 °F 64% 30.34 in 10.0 mi North 10.4 mph - N/A   Clear
9:55 AM 37.9 °F 32.1 °F 24.1 °F 57% 30.35 in 10.0 mi North 8.1 mph - N/A   Clear
10:55 AM 42.1 °F 38.4 °F 24.1 °F 49% 30.32 in 10.0 mi Variable 5.8 mph - N/A   Clear
11:55 AM 45.0 °F 42.6 °F 21.9 °F 40% 30.31 in 10.0 mi Variable 4.6 mph - N/A   Clear
12:55 PM 46.9 °F - 21.9 °F 37% 30.27 in 10.0 mi Variable 4.6 mph - N/A   Clear
1:55 PM 48.9 °F - 23.0 °F 36% 30.24 in 10.0 mi SSE 5.8 mph - N/A   Clear
2:55 PM 50.0 °F - 23.0 °F 35% 30.22 in 10.0 mi East 4.6 mph - N/A   Clear
3:55 PM 51.1 °F - 23.0 °F 33% 30.21 in 10.0 mi SSE 10.4 mph 17.3 mph N/A   Clear
4:55 PM 51.1 °F - 23.0 °F 33% 30.21 in 10.0 mi SE 6.9 mph - N/A   Clear
5:55 PM 48.9 °F - 23.0 °F 36% 30.22 in 10.0 mi SE 10.4 mph - N/A   Partly Cloudy
6:55 PM 45.0 °F 39.3 °F 24.1 °F 44% 30.25 in 10.0 mi ESE 11.5 mph - N/A   Clear
7:55 PM 41.0 °F 35.2 °F 24.1 °F 51% 30.26 in 10.0 mi East 9.2 mph - N/A   Clear
8:55 PM 37.9 °F 32.1 °F 25.0 °F 60% 30.25 in 10.0 mi ESE 8.1 mph - N/A   Clear
9:55 PM 37.0 °F 30.4 °F 25.0 °F 62% 30.25 in 10.0 mi SE 9.2 mph - N/A   Clear
10:55 PM 34.0 °F 27.2 °F 24.1 °F 67% 30.25 in 10.0 mi SE 8.1 mph - N/A   Clear
11:55 PM 35.1 °F 29.3 °F 24.1 °F 64% 30.23 in 10.0 mi SE 6.9 mph - N/A   Clear